Midland, MI

5:29 AM EST on February 09, 2016 (GMT -0500)
Barstow

Weather History for KIKW - November, 2011

Change the Weather History Date:

Tuesday, November 1, 2011

  Actual Average (KMBS) Record (KMBS)
Temperature  
Mean Temperature 44 °F 44 °F  
Max Temperature 58 °F 53 °F 72 °F (1999)
Min Temperature 31 °F 36 °F 26 °F (2006)
Degree Days  
Heating Degree Days 20    
Month to date heating degree days  
Since 1 July heating degree days  
Cooling Degree Days 0    
Month to date cooling degree days  
Year to date cooling degree days  
Moisture  
Dew Point 36 °F    
Average Humidity 77    
Maximum Humidity 99    
Minimum Humidity 41    
Precipitation  
Precipitation 0.00 in 0.10 in 0.61 in (1997)
Month to date precipitation 0.10  
Year to date precipitation 27.08  
Snow  
Snow 0.00 in - - ()
Month to date snowfall  
Since 1 July snowfall  
Since 1 September snowfall  
Snow Depth -    
Sea Level Pressure  
Sea Level Pressure 30.16 in    
Wind  
Wind Speed 3 mph (SSW)    
Max Wind Speed 14 mph    
Max Gust Speed 20 mph    
Visibility 7 miles    
Events Fog    
T = Trace of Precipitation, MM = Missing Value Source: NWS Daily Summary

Daily Weather History Graph

Daily Weather History Graph

Search for Another Location

Airport or City:

Trip Planner

Search our weather history database for the weather conditions in past years. The results will help you decide how hot, cold, wet, or windy it might be!

Date:

Astronomy

Nov. 01, 2011 Rise Set
Actual Time 8:12 AM EDT 6:28 PM EDT
Civil Twilight 7:42 AM EDT 6:57 PM EDT
Nautical Twilight 7:08 AM EDT 7:31 PM EDT
Astronomical Twilight 6:35 AM EDT 8:05 PM EDT
Moon 2:00 PM EDT (11/1) No Moon Set
Length of Visible Light 11h 15m
Length of Day
10h 15m
Waxing Crescent, 39% of the Moon is Illuminated
Nov 1
Waxing Crescent
Nov 2
First Quarter
Nov 10
Full
Nov 18
Last Quarter
Nov 25
New

Hourly Weather History & Observations

Time (EDT) Temp. Windchill Dew Point Humidity Pressure Visibility Wind Dir Wind Speed Gust Speed Precip Events Conditions
12:13 AM 39.0 °F - 36.7 °F 91% 30.13 in 7.0 mi Calm Calm - N/A   Clear
12:33 AM 37.4 °F - 35.8 °F 94% 30.13 in 5.0 mi Calm Calm - N/A   Clear
12:53 AM 37.8 °F - 36.7 °F 96% 30.13 in 4.0 mi Calm Calm - N/A   Clear
1:12 AM 37.2 °F - 36.0 °F 95% 30.13 in 2.0 mi Calm Calm - N/A   Clear
1:33 AM 35.6 °F - 34.5 °F 96% 30.14 in 2.0 mi Calm Calm - N/A   Clear
1:53 AM 34.7 °F - 33.6 °F 96% 30.14 in 1.0 mi Calm Calm - N/A   Mist
2:13 AM 34.5 °F - 33.6 °F 97% 30.14 in 0.2 mi Calm Calm - N/A Fog Fog
2:33 AM 33.4 °F - 32.4 °F 96% 30.15 in 0.2 mi Calm Calm - N/A Fog Fog
2:54 AM 34.3 °F - 33.4 °F 97% 30.15 in 0.2 mi Calm Calm - N/A Fog Fog
3:13 AM 35.1 °F - 34.0 °F 96% 30.15 in 0.2 mi Calm Calm - N/A Fog Fog
3:33 AM 32.7 °F - 32.0 °F 97% 30.16 in 0.2 mi Calm Calm - N/A Fog Fog
3:54 AM 33.6 °F - 32.7 °F 96% 30.16 in 0.2 mi Calm Calm - N/A Fog Fog
4:13 AM 32.0 °F - 31.6 °F 99% 30.16 in 0.2 mi Calm Calm - N/A Fog Fog
4:33 AM 31.3 °F - 30.6 °F 97% 30.17 in 0.5 mi Calm Calm - N/A Fog Light Freezing Fog
4:54 AM 33.8 °F - 32.9 °F 96% 30.17 in 1.0 mi Calm Calm - N/A   Overcast
5:13 AM 36.0 °F - 35.1 °F 97% 30.17 in 5.0 mi Calm Calm - N/A   Overcast
5:33 AM 37.9 °F 35.5 °F 36.9 °F 96% 30.17 in 7.0 mi SSW 3.5 mph - N/A   Overcast
5:54 AM 38.8 °F 35.4 °F 37.6 °F 95% 30.17 in 7.0 mi South 4.6 mph - N/A   Overcast
6:13 AM 39.2 °F 35.0 °F 37.2 °F 93% 30.17 in 7.0 mi South 5.8 mph - N/A   Overcast
6:33 AM 39.6 °F 37.4 °F 37.0 °F 91% 30.18 in 7.0 mi South 3.5 mph - N/A   Overcast
6:54 AM 40.1 °F 36.1 °F 36.9 °F 88% 30.18 in 10.0 mi South 5.8 mph - N/A   Overcast
7:13 AM 40.1 °F 36.9 °F 36.5 °F 87% 30.18 in 10.0 mi South 4.6 mph - N/A   Overcast
7:33 AM 39.7 °F - 36.5 °F 88% 30.18 in 10.0 mi Calm Calm - N/A   Overcast
7:54 AM 39.4 °F - 36.0 °F 88% 30.18 in 10.0 mi Calm Calm - N/A   Overcast
8:13 AM 38.8 °F 36.5 °F 35.8 °F 89% 30.18 in 7.0 mi South 3.5 mph - N/A   Mostly Cloudy
8:33 AM 37.8 °F - 34.7 °F 89% 30.18 in 7.0 mi Calm Calm - N/A   Clear
9:13 AM 38.8 °F - 35.8 °F 89% 30.20 in 5.0 mi Calm Calm - N/A   Clear
9:33 AM 40.1 °F - 36.1 °F 86% 30.20 in 7.0 mi Calm Calm - N/A   Clear
9:53 AM 41.2 °F 38.2 °F 36.3 °F 83% 30.20 in 7.0 mi South 4.6 mph - N/A   Clear
10:14 AM 42.8 °F 38.6 °F 36.7 °F 79% 30.20 in 10.0 mi SSW 6.9 mph - N/A   Clear
10:34 AM 44.4 °F 42.9 °F 37.2 °F 76% 30.20 in 10.0 mi South 3.5 mph - N/A   Clear
10:53 AM 46.4 °F 44.3 °F 37.2 °F 70% 30.19 in 10.0 mi South 4.6 mph - N/A   Clear
11:14 AM 48.2 °F - 37.9 °F 68% 30.19 in 10.0 mi South 4.6 mph - N/A   Clear
11:33 AM 49.6 °F - 38.3 °F 65% 30.19 in 10.0 mi South 5.8 mph - N/A   Clear
11:53 AM 50.2 °F - 38.5 °F 64% 30.19 in 10.0 mi SW 8.1 mph - N/A   Clear
12:14 PM 51.4 °F - 39.0 °F 63% 30.19 in 10.0 mi SW 8.1 mph - N/A   Clear
12:33 PM 52.9 °F - 38.8 °F 59% 30.19 in 10.0 mi SW 10.4 mph - N/A   Clear
12:53 PM 53.8 °F - 39.0 °F 57% 30.17 in 10.0 mi SSW 8.1 mph - N/A   Scattered Clouds
1:14 PM 54.5 °F - 38.7 °F 55% 30.16 in 10.0 mi SSW 8.1 mph 11.5 mph N/A   Clear
1:33 PM 54.9 °F - 37.4 °F 52% 30.15 in 10.0 mi South 12.7 mph - N/A   Clear
1:53 PM 54.5 °F - 37.4 °F 52% 30.15 in 10.0 mi SSW 13.8 mph 19.6 mph N/A   Clear
2:14 PM 54.7 °F - 37.0 °F 51% 30.14 in 10.0 mi SSW 9.2 mph 17.3 mph N/A   Clear
2:34 PM 55.6 °F - 37.0 °F 50% 30.13 in 10.0 mi South 13.8 mph - N/A   Clear
2:53 PM 55.9 °F - 36.7 °F 48% 30.13 in 10.0 mi SW 12.7 mph - N/A   Clear
3:14 PM 56.1 °F - 36.5 °F 48% 30.13 in 10.0 mi South 12.7 mph 18.4 mph N/A   Clear
3:33 PM 57.4 °F - 36.7 °F 46% 30.12 in 10.0 mi SSW 11.5 mph - N/A   Clear
3:53 PM 57.7 °F - 35.8 °F 44% 30.11 in 10.0 mi South 12.7 mph 18.4 mph N/A   Clear
4:14 PM 58.1 °F - 36.0 °F 44% 30.12 in 10.0 mi South 11.5 mph 19.6 mph N/A   Clear
4:33 PM 58.5 °F - 35.4 °F 42% 30.12 in 10.0 mi SSW 10.4 mph - N/A   Clear
4:53 PM 58.6 °F - 35.1 °F 41% 30.12 in 10.0 mi SSW 10.4 mph 17.3 mph N/A   Clear
5:14 PM 58.6 °F - 35.6 °F 42% 30.11 in 10.0 mi South 5.8 mph - N/A   Clear
5:33 PM 58.1 °F - 35.1 °F 42% 30.11 in 10.0 mi SSW 6.9 mph - N/A   Clear
5:53 PM 57.6 °F - 35.2 °F 43% 30.10 in 10.0 mi SSE 4.6 mph - N/A   Clear
6:13 PM 55.9 °F - 35.4 °F 46% 30.10 in 10.0 mi SSE 3.5 mph - N/A   Clear
6:33 PM 55.4 °F - 35.2 °F 47% 30.10 in 10.0 mi SSE 3.5 mph - N/A   Clear
6:54 PM 54.7 °F - 34.9 °F 47% 30.10 in 10.0 mi Calm Calm - N/A   Scattered Clouds
7:13 PM 54.5 °F - 34.9 °F 48% 30.10 in 10.0 mi Calm Calm - N/A   Scattered Clouds
7:33 PM 53.8 °F - 34.5 °F 48% 30.10 in 10.0 mi SSE 4.6 mph - N/A   Clear
7:53 PM 52.9 °F - 35.1 °F 51% 30.10 in 10.0 mi SSE 4.6 mph - N/A   Clear
8:13 PM 52.9 °F - 34.5 °F 50% 30.10 in 10.0 mi SSE 5.8 mph - N/A   Clear
8:33 PM 53.6 °F - 34.9 °F 49% 30.09 in 10.0 mi South 10.4 mph - N/A   Clear
8:53 PM 52.9 °F - 34.9 °F 50% 30.10 in 10.0 mi South 6.9 mph - N/A   Clear
9:14 PM 52.9 °F - 35.6 °F 52% 30.10 in 10.0 mi South 11.5 mph 16.1 mph N/A   Clear
9:53 PM 52.9 °F - 36.0 °F 53% 30.10 in 10.0 mi South 5.8 mph - N/A   Clear
10:33 PM 50.7 °F - 36.1 °F 57% 30.10 in 10.0 mi South 5.8 mph - N/A   Clear
10:53 PM 50.9 °F - 36.1 °F 57% 30.09 in 10.0 mi South 6.9 mph - N/A   Clear
11:14 PM 50.7 °F - 36.1 °F 57% 30.09 in 10.0 mi South 5.8 mph - N/A   Clear
11:33 PM 49.6 °F - 36.1 °F 60% 30.09 in 10.0 mi South 4.6 mph - N/A   Clear
11:53 PM 49.5 °F - 36.1 °F 60% 30.09 in 10.0 mi South 4.6 mph - N/A   Clear